User: anonymous   Login
Location: Caltech
(34.1382°N, 118.1253°W)
Time: 12:55:42
(UTC-07:00)
Language:

Cosmos 1833 Rocket - Orbit

View from above orbital plane
View from above orbital plane
View from above satellite
View from above satellite

Ground track
Ground track

The orbit data is extracted from the following two-line orbital elements,

1 17590U 87027B   15146.95971905  .00000034  00000-0  40937-4 0  9992
2 17590 071.0031 293.9163 0005096 346.1616 013.9367 14.16694068457589
Epoch (UTC): 26 May 2015 23:01:59
Eccentricity: 0.0005096
inclination: 71.0031°
perigee height: 833 km
apogee height: 840 km
right ascension of ascending node: 293.9163°
argument of perigee: 346.1616°
revolutions per day: 14.16694068
mean anomaly at epoch: 13.9367°
orbit number at epoch: 45758

The dashed part of the orbit path shows where the satellite is in the earth's shadow,  

DLR